Theta_e
337 333 330 326 324 322 320 319 318 318 318 316 321 321 318 318 319 322 321 321 320 318 318 318 316 315 316 316 317 318 319 324
325 322 319 319 320 320 318 317 318 319 319 325 324 324 323 324 324 324 322 323 321 321 319 320 319 318 318 315 315 317 320 324
328 327 323 316 317 317 317 320 323 325 328 328 327 324 325 326 326 325 323 323 322 321 320 319 319 319 318 316 310 314 317 319
332 330 327 324 322 319 326 325 327 326 329 328 328 326 327 327 326 323 321 321 319 320 320 320 319 318 318 316 312 309 310 314
332 330 330 327 326 326 328 328 328 327 328 327 328 328 328 324 322 318 317 317 317 318 320 319 318 318 318 317 315 312 310 309
330 328 330 330 328 328 328 329 330 330 329 328 327 326 323 320 318 318 318 318 318 318 317 317 317 318 318 318 318 316 314 311
331 328 330 328 326 328 329 329 329 330 329 327 322 323 321 320 320 320 319 320 320 319 318 318 318 318 319 319 319 318 316 315
331 324 327 328 329 328 328 327 325 327 325 324 319 319 322 321 320 320 317 318 318 318 318 317 316 318 319 319 319 319 318 315
330 330 330 326 328 329 328 323 324 324 324 322 321 321 321 320 316 313 313 314 315 315 315 317 316 313 311 311 312 313 316 317
332 324 323 327 327 327 329 321 321 321 321 320 317 317 316 315 314 313 312 312 312 313 312 312 311 310 310 310 309 311 314 314
331 326 328 325 325 324 322 321 321 318 316 315 314 314 313 313 312 312 312 312 311 310 310 308 307 307 307 306 306 306 306 307
330 325 325 325 323 323 320 318 315 313 313 313 312 312 311 311 311 310 311 311 309 308 307 307 306 306 305 305 304 304 306 310
326 327 325 319 316 316 315 314 313 312 312 312 312 312 312 311 309 309 308 307 306 305 306 306 305 304 304 305 305 304 305 305
315 316 317 315 316 314 313 312 312 312 313 312 311 309 307 307 305 304 304 305 305 304 304 304 305 305 306 306 303 304 304 305
313 313 314 314 312 312 311 312 312 313 312 310 309 307 305 303 303 302 302 302 303 303 302 302 304 305 306 306 303 303 302 304
313 313 313 312 312 312 312 312 312 309 307 307 306 304 302 301 301 301 301 302 301 301 301 301 301 302 303 303 302 301 301 301
313 313 312 312 311 311 311 311 308 307 307 305 303 302 301 300 300 301 301 300 300 299 300 301 300 301 300 300 300 299 299 298
313 314 313 312 311 311 311 309 307 306 303 302 302 301 300 300 300 300 299 299 298 298 297 297 297 296 297 297 297 298 297 297
314 313 314 312 312 310 309 306 304 302 303 304 303 300 300 300 300 299 299 298 297 297 296 295 293 293 294 295 295 295 295 295
313 311 310 310 306 304 304 304 304 305 304 304 302 301 300 299 298 297 296 294 293 293 293 292 291 290 291 292 292 293 294 294
Wind_Speed
21 18 16 15 13 12 12 12 11 10 9 9 9 10 11 9 8 10 9 9 10 9 12 12 11 9 10 11 11 12 10 10
20 19 15 13 14 12 11 11 11 10 10 10 9 8 9 9 7 9 8 8 9 8 12 11 12 12 15 16 13 11 9 10
20 18 15 14 13 13 12 12 12 12 10 8 6 6 6 5 5 5 6 7 8 7 9 11 11 13 15 17 16 12 11 11
20 17 17 15 14 13 12 11 10 9 7 7 4 3 2 3 4 6 7 9 9 9 9 9 9 12 14 15 16 14 12 14
21 17 16 15 14 12 11 10 10 8 5 6 3 1 2 2 3 6 7 9 11 11 11 11 12 13 13 13 15 14 12 11
23 19 17 14 11 12 12 12 11 8 6 6 4 3 1 0 3 5 7 10 11 12 13 16 19 21 20 18 18 15 13 12
26 22 15 12 10 10 13 12 10 11 11 8 3 5 2 3 2 4 7 10 12 10 12 17 20 22 22 23 24 22 19 16
25 22 20 16 12 14 12 15 12 13 10 9 4 2 4 2 3 6 9 12 15 16 19 22 25 25 26 25 26 27 26 24
31 25 20 14 15 14 13 12 9 10 13 11 7 4 2 2 5 9 12 15 18 19 20 20 19 18 21 20 19 21 23 26
35 23 19 14 12 10 11 10 8 6 8 7 8 6 3 4 7 11 13 15 18 20 17 14 15 18 21 20 23 23 23 25
31 17 18 10 13 12 15 9 7 8 11 8 6 5 7 9 11 14 16 14 15 16 15 15 19 20 23 23 26 28 29 29
20 18 14 14 14 14 12 11 12 10 8 5 5 5 6 10 16 15 10 8 10 13 15 18 20 23 26 27 27 27 26 20
16 18 14 14 18 17 13 11 7 8 9 6 6 10 15 17 14 9 9 10 12 14 15 16 18 22 25 28 25 26 20 24
20 17 16 15 15 10 5 3 6 5 5 5 10 12 10 10 11 13 14 14 16 17 19 19 16 18 12 14 7 19 20 17
19 17 14 12 10 5 4 2 1 5 10 11 9 5 6 9 14 17 18 18 16 16 18 19 16 15 11 5 3 3 6 11
15 12 8 5 4 5 5 3 4 6 4 4 1 7 12 15 16 16 14 12 14 15 17 17 18 15 13 10 6 3 2 7
6 4 4 4 4 5 4 3 5 2 2 1 7 11 14 16 18 16 15 17 16 15 15 15 14 10 10 9 8 10 4 4
3 0 3 5 6 7 7 5 4 5 5 8 14 15 14 11 10 11 13 15 15 14 14 16 19 19 18 16 12 7 7 4
3 4 7 8 8 7 5 3 10 9 12 19 18 16 9 6 7 11 11 12 13 16 19 22 24 21 21 21 19 21 21 20
14 12 14 11 12 16 14 9 7 11 16 16 16 7 4 6 6 8 10 13 14 15 15 14 16 18 19 18 21 20 16 17
Wind_Direction
143 139 141 137 137 132 135 134 129 125 117 112 100 86 86 77 48 40 41 24 16 39 16 13 12 14 3 347 345 345 341 333
140 138 134 136 138 138 139 134 129 122 119 120 100 84 72 66 52 38 33 16 16 20 23 15 13 2 352 352 337 332 337 310
142 138 132 134 138 138 136 126 127 119 115 130 116 89 78 54 18 10 3 349 349 352 6 8 359 356 352 352 348 326 319 310
152 152 145 138 138 137 142 136 131 133 122 132 143 86 33 342 324 350 351 342 338 327 338 343 344 347 341 343 343 343 322 301
163 161 159 154 153 152 160 152 142 138 143 134 124 342 336 357 337 345 351 345 341 329 326 328 330 325 320 323 327 329 331 315
166 168 165 177 176 178 174 177 169 163 159 151 159 157 183 227 321 346 348 344 341 333 329 330 331 324 314 307 304 302 307 308
167 164 157 160 174 194 189 184 187 183 182 178 184 183 182 226 291 340 345 338 338 318 317 321 321 318 311 300 295 289 286 284
165 161 168 164 163 160 158 169 179 174 193 197 214 212 210 227 334 10 358 350 344 334 327 325 322 318 316 312 307 291 281 276
167 163 159 161 163 160 165 155 164 184 190 198 206 203 212 91 40 12 352 338 325 318 318 322 328 338 338 335 336 335 328 301
175 168 168 168 167 164 173 165 167 149 188 158 119 110 84 21 338 332 332 325 312 312 319 325 332 345 345 344 343 341 336 328
177 161 171 195 180 170 162 159 143 135 122 104 76 19 338 318 311 312 319 308 304 311 319 340 344 341 338 336 332 330 330 329
169 170 187 177 174 158 136 117 121 104 68 30 53 47 1 330 325 332 316 306 314 326 332 331 341 345 339 331 327 323 326 330
152 170 160 130 126 121 112 106 107 102 89 63 20 345 330 332 347 6 7 5 0 358 355 351 337 332 329 325 318 314 309 309
91 102 115 101 83 87 103 97 80 81 62 5 341 359 31 8 25 20 15 5 354 349 352 349 336 340 324 313 316 315 314 319
98 96 89 80 70 62 69 54 316 323 339 339 355 20 33 11 3 358 355 357 355 346 340 339 345 352 353 333 336 304 326 318
107 99 88 66 15 341 311 307 335 343 359 347 38 28 11 2 0 0 5 6 5 5 351 347 344 347 341 336 325 319 318 314
79 73 43 2 328 311 267 246 270 224 301 86 24 7 358 356 351 356 2 360 3 2 8 10 13 6 6 345 330 319 303 310
132 353 332 315 290 277 268 262 229 153 78 24 359 351 356 5 360 7 10 1 358 2 5 10 3 356 350 344 343 313 304 282
287 270 319 335 323 279 279 120 106 78 17 349 337 337 334 53 12 4 4 5 2 352 343 340 341 339 330 326 318 313 312 304
45 40 38 45 81 77 67 54 54 352 344 331 302 253 133 71 10 0 351 347 346 345 348 348 344 342 336 335 333 331 323 320